Location: *
(37.3639°N, 96.3022°W)
Time: 19:17:12
(UTC+00:00)

Daily predictions for brighter satellites

Satellite Brightness Start Highest point End
(mag) Time Altitude Azimuth Time Altitude Azimuth Time Altitude Azimuth
Cosmos 1741 Rocket 4.1 12:00:14 10° SSW 12:05:33 90° WNW 12:10:55 10° NNE
Cosmos 1484 Rocket 3.4 12:02:49 10° N 12:06:16 34° WNW 12:09:45 10° SW
CZ-4B DEB 4.3 12:02:09 10° N 12:07:30 56° WNW 12:12:48 10° SSW
In-Cosmos 22 4.5 12:03:28 10° SSW 12:08:28 41° WNW 12:13:35 10° N
Milstar 3 Cent rocket 3.6 12:04:50 10° SW 12:09:02 26° S 12:12:55 10° ESE
Okean 1-7 Rocket 4.3 12:05:48 10° SW 12:09:44 31° WNW 12:13:45 10° NNW
